Terug naar catalogus

STARLINK-2402

ActiefCommunicatieVLEO
NORAD 47819·PAYLOAD·🇺🇸 United States

Gelanceerd Mar 11, 2021 vanaf Cape Canaveral Space Force Station

Loading…

Volgende Passages (komende 24 uur)

TLE

VersSource: CelesTrak SupGP

Epoch: Sep 15, 2026, 01:27 UTC

1 47819C 21018AJ  26258.06090278  .00006144  00000+0  19755-3 0  2588
2 47819  53.1575  81.7514 0001078  75.7386 269.9135 15.31701346    12

Volg STARLINK-2402 in realtime met AllMySat

Download on the App Store